CW5306 Weather Reports


time (UTC)temp
C
wind
direction
speed
KPH
gust
KPH
rain 1hr
cm
rain 24hr
cm
rain mn
cm
humidity
%
barometer
mb
20260507080213 21 244 0.0 0.0 0.00 0.00 0.00 83 1019.0
20260507075712 21 244 0.0 0.0 0.00 0.00 0.00 83 1019.2
20260507075213 21 244 0.0 0.0 0.00 0.00 0.00 83 1019.0
20260507074932 21 244 0.0 0.0 0.00 0.00 0.00 83 1019.0
20260507074201 21 244 0.0 0.0 0.00 0.00 0.00 82 1018.9
20260507073702 22 244 0.0 0.0 0.00 0.00 0.00 82 1019.2
20260507073149 22 244 0.0 0.0 0.00 0.00 0.00 82 1019.0
20260507072651 22 243 0.0 0.0 0.00 0.00 0.00 81 1019.0
20260507072126 22 243 0.0 0.0 0.00 0.00 0.00 81 1018.9
20260507071626 22 244 0.0 0.0 0.00 0.00 0.00 80 1018.9
20260507071356 22 244 0.0 0.0 0.00 0.00 0.00 80 1018.8
20260507070625 22 270 0.0 0.0 0.00 0.00 0.00 79 1018.7
20260507070356 22 270 0.0 0.0 0.00 0.00 0.00 79 1018.7
20260507065856 22 270 0.0 0.0 0.00 0.00 0.00 79 1018.7
20260507065125 22 272 0.0 0.0 0.00 0.00 0.00 78 1018.4
20260507064613 22 272 0.0 0.0 0.00 0.00 0.00 78 1018.4
20260507064112 22 273 0.0 0.0 0.00 0.00 0.00 78 1018.2
20260507063613 23 272 0.0 0.0 0.00 0.00 0.00 77 1018.4
20260507063113 23 278 0.0 0.0 0.00 0.00 0.00 77 1018.2
20260507062613 23 277 0.0 0.0 0.00 0.00 0.00 76 1018.0
20260507062344 23 62 0.0 0.0 0.00 0.00 0.00 75 1017.9
20260507062219 23 62 0.0 0.0 0.00 0.00 0.00 75 1018.0
20260507061112 23 30 0.0 0.0 0.00 0.00 0.00 75 1017.9
20260507060844 23 8 0.0 0.0 0.00 0.00 0.00 74 1017.7
20260507060112 23 42 0.0 9.7 0.00 0.00 0.00 74 1017.7
20260507055613 23 40 0.0 9.7 0.00 0.00 0.00 74 1017.7
20260507055112 23 42 0.0 9.7 0.00 0.00 0.00 75 1017.6
20260507054843 23 38 0.0 1.6 0.00 0.00 0.00 75 1017.7
20260507054343 23 34 0.0 9.7 0.00 0.00 0.00 76 1017.5
20260507053613 23 52 0.0 9.7 0.00 0.00 0.00 74 1017.7
20260507053120 23 350 0.0 8.0 0.00 0.00 0.00 74 1017.5
20260507053114 23 37 0.0 8.0 0.00 0.00 0.00 75 1017.4
20260507052112 23 32 0.0 8.0 0.00 0.00 0.00 75 1017.3
20260507051612 23 51 0.0 14.5 0.00 0.00 0.00 74 1017.2
20260507051112 23 46 0.0 14.5 0.00 0.00 0.00 75 1017.4
20260507050612 23 42 0.0 12.9 0.00 0.00 0.00 76 1017.2
20260507050343 23 29 0.0 12.9 0.00 0.00 0.00 75 1017.3
20260507045613 23 35 0.0 9.7 0.00 0.00 0.00 75 1017.2
20260507045113 23 11 0.0 14.5 0.00 0.00 0.00 75 1017.3
20260507044613 23 24 0.0 14.5 0.00 0.00 0.00 75 1017.1
20260507044112 23 48 0.0 14.5 0.00 0.00 0.00 76 1017.1
20260507043612 23 54 0.0 14.5 0.00 0.00 0.00 75 1017.3
20260507043112 23 40 4.8 14.5 0.00 0.00 0.00 76 1017.0
20260507042612 23 354 8.0 12.9 0.00 0.00 0.00 76 1017.0
20260507042112 23 40 4.8 9.7 0.00 0.00 0.00 76 1016.8
20260507041613 23 37 0.0 16.1 0.00 0.00 0.00 75 1016.7
20260507041113 23 40 8.0 16.1 0.00 0.00 0.00 75 1016.7
20260507040844 23 38 0.0 16.1 0.00 0.00 0.00 75 1016.6
20260507040113 23 46 0.0 16.1 0.00 0.00 0.00 75 1016.5
20260507035612 23 46 0.0 14.5 0.00 0.00 0.00 74 1016.6
20260507035112 23 47 0.0 14.5 0.00 0.00 0.00 75 1016.5
20260507034613 24 37 6.4 9.7 0.00 0.00 0.00 75 1016.6
20260507034343 24 28 3.2 17.7 0.00 0.00 0.00 75 1016.6
20260507033619 24 359 0.0 14.5 0.00 0.00 0.00 73 1016.3
20260507033613 24 34 0.0 17.7 0.00 0.00 0.00 74 1016.6
20260507032613 24 30 0.0 12.9 0.00 0.00 0.00 74 1016.2
20260507032112 24 11 3.2 14.5 0.00 0.00 0.00 73 1016.2
20260507031612 24 358 0.0 14.5 0.00 0.00 0.00 74 1016.5
20260507031344 24 11 9.7 12.9 0.00 0.00 0.00 73 1016.3
20260507030613 24 345 0.0 14.5 0.00 0.00 0.00 74 1016.3
20260507025549 24 6 0.0 17.7 0.00 0.00 0.00 74 1016.2
20260507025321 24 29 0.0 9.7 0.00 0.00 0.00 74 1016.3
20260507024537 24 28 0.0 14.5 0.00 0.00 0.00 75 1016.1
20260507024037 24 350 0.0 17.7 0.00 0.00 0.00 75 1016.0
20260507023536 24 347 0.0 17.7 0.00 0.00 0.00 75 1016.0
20260507023037 24 356 12.9 17.7 0.00 0.00 0.00 74 1016.1
20260507022537 24 329 0.0 14.5 0.00 0.00 0.00 75 1016.1
20260507022036 24 353 0.0 14.5 0.00 0.00 0.00 75 1016.2
20260507021807 24 12 0.0 14.5 0.00 0.00 0.00 75 1016.3
20260507021037 24 44 9.7 17.7 0.00 0.00 0.00 75 1016.0
20260507020537 24 345 1.6 17.7 0.00 0.00 0.00 74 1016.0
20260507020037 24 7 0.0 16.1 0.00 0.00 0.00 74 1016.1
20260507015537 25 16 0.0 16.1 0.00 0.00 0.00 74 1016.0
20260507015307 25 355 4.8 16.1 0.00 0.00 0.00 75 1016.2
20260507014808 25 36 6.4 20.9 0.00 0.00 0.00 75 1016.1
20260507014025 25 22 1.6 20.9 0.00 0.00 0.00 73 1016.2
20260507013757 25 342 9.7 14.5 0.00 0.00 0.00 74 1016.0
20260507013026 25 26 0.0 14.5 0.00 0.00 0.00 75 1015.9
20260507012524 25 345 0.0 17.7 0.00 0.00 0.00 74 1016.0
20260507012024 25 23 0.0 17.7 0.00 0.00 0.00 74 1016.1
20260507011526 25 36 0.0 20.9 0.00 0.00 0.00 73 1016.0
20260507011025 25 329 4.8 20.9 0.00 0.00 0.00 73 1016.0
20260507010513 25 352 0.0 14.5 0.00 0.00 0.00 74 1015.9
20260507010013 25 340 6.4 17.7 0.00 0.00 0.00 74 1016.1
20260507005744 25 35 0.0 17.7 0.00 0.00 0.00 73 1016.4
20260507005244 25 15 1.6 16.1 0.00 0.00 0.00 72 1016.2
20260507004513 25 2 0.0 16.1 0.00 0.00 0.00 73 1016.4
20260507004013 25 30 4.8 16.1 0.00 0.00 0.00 73 1016.4
20260507003512 25 19 0.0 16.1 0.00 0.00 0.00 72 1016.5
20260507003243 25 34 0.0 17.7 0.00 0.00 0.00 72 1016.5
20260507003119 25 21 0.0 17.7 0.00 0.00 0.00 73 1016.7
20260507002243 25 22 0.0 14.5 0.00 0.00 0.00 73 1016.8
20260507001745 25 338 9.7 16.1 0.00 0.00 0.00 73 1016.8
20260507001012 25 337 0.0 16.1 0.00 0.00 0.00 73 1016.6
20260507000513 25 12 6.4 14.5 0.00 0.00 0.00 74 1016.7
20260507000013 25 12 8.0 14.5 0.00 0.00 0.00 73 1016.8
20260506235512 25 11 0.0 16.1 0.00 0.00 0.00 73 1016.7
20260506235014 25 8 0.0 17.7 0.00 0.00 0.00 74 1016.8
20260506234512 25 17 0.0 17.7 0.00 0.00 0.00 73 1016.9
20260506234012 26 322 0.0 14.5 0.00 0.00 0.00 73 1016.8
20260506233519 26 7 0.0 16.1 0.00 0.00 0.00 72 1016.9
20260506233013 26 15 9.7 16.1 0.00 0.00 0.00 73 1016.9
20260506232744 26 34 0.0 14.5 0.00 0.00 0.00 73 1016.9
20260506232013 26 37 0.0 14.5 0.00 0.00 0.00 72 1017.0
20260506231512 26 354 9.7 16.1 0.00 0.00 0.00 72 1017.0
20260506231232 26 324 0.0 16.1 0.00 0.00 0.00 72 1016.9
20260506230501 26 20 12.9 14.5 0.00 0.00 0.00 73 1017.0
20260506230231 26 1 6.4 16.1 0.00 0.00 0.00 73 1017.0
20260506230107 25 14 4.8 16.1 0.00 0.00 0.00 73 1016.9
20260506225001 25 12 4.8 16.1 0.00 0.00 0.00 74 1016.9
20260506224502 25 354 0.0 16.1 0.00 0.00 0.00 75 1016.9
20260506224001 25 34 8.0 24.1 0.00 0.00 0.00 75 1016.9
20260506223502 25 346 1.6 24.1 0.00 0.00 0.00 77 1016.8
20260506222953 25 331 4.8 17.7 0.00 0.00 0.00 77 1016.8
20260506222442 25 0.0 0.0 0.00 0.00 0.00 76
20260506142255 18 250 0.0 0.0 0.00 0.00 0.00 91 1015.3
20260506141755 18 256 0.0 0.0 0.00 0.00 0.00 91 1015.0
20260506141256 18 275 0.0 0.0 0.00 0.00 0.00 91 1015.2
20260506140758 18 240 0.0 0.0 0.00 0.00 0.00 91 1015.2
20260506140255 18 250 0.0 0.0 0.00 0.00 0.00 91 1015.3
20260506140027 18 243 0.0 0.0 0.00 0.00 0.00 91 1015.1
20260506135256 18 272 0.0 0.0 0.00 0.00 0.00 91 1015.1
20260506135027 18 229 0.0 0.0 0.00 0.00 0.00 91 1015.3
20260506134256 18 234 0.0 0.0 0.00 0.00 0.00 91 1015.1
20260506133744 18 255 0.0 0.0 0.00 0.00 0.00 91 1015.0
20260506133244 18 277 0.0 0.0 0.00 0.00 0.00 91 1014.9
20260506132744 18 279 0.0 0.0 0.00 0.00 0.00 91 1015.0
20260506132244 18 296 0.0 0.0 0.00 0.00 0.00 91 1015.2
20260506131745 18 267 0.0 0.0 0.00 0.00 0.00 90 1015.0
20260506131243 18 275 0.0 0.0 0.00 0.00 0.00 90 1015.2
20260506130744 18 264 0.0 0.0 0.00 0.00 0.00 90 1015.2
20260506130515 18 250 0.0 0.0 0.00 0.00 0.00 90 1015.1
20260506130014 18 246 0.0 0.0 0.00 0.00 0.00 91 1015.3
20260506125245 18 242 0.0 0.0 0.00 0.00 0.00 90 1015.2
20260506124743 18 241 0.0 0.0 0.00 0.00 0.00 90 1015.1
20260506124514 18 243 0.0 0.0 0.00 0.00 0.00 90 1015.4
20260506123732 18 243 0.0 0.0 0.00 0.00 0.00 90 1015.4
20260506123232 18 243 0.0 0.0 0.00 0.00 0.00 90 1015.6
20260506122951 18 244 0.0 0.0 0.00 0.00 0.00 90 1015.5
20260506122220 18 243 0.0 0.0 0.00 0.00 0.00 91 1015.4
20260506121721 18 234 0.0 0.0 0.00 0.00 0.00 90 1015.6
20260506121208 18 229 0.0 0.0 0.00 0.00 0.00 90 1015.5
20260506120708 18 229 0.0 0.0 0.00 0.00 0.00 90 1015.9
20260506120208 18 229 0.0 0.0 0.00 0.00 0.00 90 1015.8
20260506115655 19 229 0.0 0.0 0.00 0.00 0.00 90 1016.0
20260506115155 19 229 0.0 0.0 0.00 0.00 0.00 90 1016.1
20260506114656 19 229 0.0 0.0 0.00 0.00 0.00 90 1016.1
20260506114418 19 229 0.0 0.0 0.00 0.00 0.00 90 1016.2
20260506114250 19 229 0.0 0.0 0.00 0.00 0.00 90 1016.1
20260506113143 19 229 0.0 0.0 0.00 0.00 0.00 90 1016.3
20260506112645 19 229 0.0 0.0 0.00 0.00 0.00 90 1016.3
20260506112131 19 229 0.0 0.0 0.00 0.00 0.00 90 1016.5
20260506111633 19 229 0.0 0.0 0.00 0.00 0.00 90 1016.3
20260506111107 19 229 0.0 0.0 0.00 0.00 0.00 90 1016.3
20260506110608 19 229 0.0 0.0 0.00 0.00 0.00 90 1016.4
20260506110058 19 228 0.0 0.0 0.00 0.00 0.00 90 1016.4
20260506105555 19 229 0.0 0.0 0.00 0.00 0.00 90 1016.6
20260506105055 19 229 0.0 0.0 0.00 0.00 0.00 90 1016.6
20260506104802 19 229 0.0 0.0 0.00 0.00 0.00 90 1016.9
20260506104302 19 229 0.0 0.0 0.00 0.00 0.00 90 1016.6
20260506103532 19 229 0.0 0.0 0.00 0.00 0.00 90 1016.8
20260506103032 19 229 0.0 0.0 0.00 0.00 0.00 90 1016.7
20260506102534 19 229 0.0 0.0 0.00 0.00 0.00 90 1017.0
20260506102032 19 229 0.0 0.0 0.00 0.00 0.00 89 1017.0
20260506101520 19 229 0.0 0.0 0.00 0.00 0.00 89 1016.9
20260506101250 19 229 0.0 0.0 0.00 0.00 0.00 89 1016.9
20260506100519 19 225 0.0 0.0 0.00 0.00 0.00 89 1017.0
20260506100008 19 225 0.0 0.0 0.00 0.00 0.00 89 1016.9
20260506095508 19 225 0.0 0.0 0.00 0.00 0.00 89 1017.0
20260506095008 19 225 0.0 0.0 0.00 0.00 0.00 89 1016.9
20260506094507 20 225 0.0 0.0 0.00 0.00 0.00 89 1017.0
20260506094007 20 225 0.0 0.0 0.00 0.00 0.00 89 1016.9
20260506093507 20 225 0.0 0.0 0.00 0.00 0.00 89 1017.0
20260506093239 20 225 0.0 0.0 0.00 0.00 0.00 89 1017.0
20260506092508 20 225 0.0 0.0 0.00 0.00 0.00 89 1017.1
20260506092008 20 225 0.0 0.0 0.00 0.00 0.00 89 1017.1
20260506091739 20 225 0.0 0.0 0.00 0.00 0.00 89 1017.3
20260506091240 20 225 0.0 0.0 0.00 0.00 0.00 89 1017.3
20260506090507 20 225 0.0 0.0 0.00 0.00 0.00 89 1017.4
20260506090238 20 225 0.0 0.0 0.00 0.00 0.00 89 1017.1
20260506085507 20 225 0.0 0.0 0.00 0.00 0.00 89 1017.3
20260506085007 20 225 0.0 0.0 0.00 0.00 0.00 89 1017.0
20260506084507 20 225 0.0 0.0 0.00 0.00 0.00 89 1016.7
20260506084239 20 225 0.0 0.0 0.00 0.00 0.00 89 1017.0
20260506083508 20 225 0.0 0.0 0.00 0.00 0.00 89 1017.1
20260506083008 20 225 0.0 0.0 0.00 0.00 0.00 89 1017.0
20260506082508 20 225 0.0 1.6 0.00 0.00 0.00 89 1017.0
20260506082007 20 225 0.0 1.6 0.00 0.00 0.00 89 1017.2
20260506081508 20 225 0.0 0.0 0.00 0.00 0.00 88 1017.2
20260506081007 20 225 0.0 0.0 0.00 0.00 0.00 88 1016.9
20260506080507 20 225 0.0 0.0 0.00 0.00 0.00 88 1016.9